Weather Roundup
Issued by NWS Chicago, IL

Home | Current Version | Previous Version | Text Only | Print | Product List | Glossary Off
Versions: 1 2 3 4 5 6 7 8 9 10 11 12 13 14 15 16 17 18 19 20 21 22 23 24 25 26 27 28 29 30 31 32 33 34 35 36 37 38 39 40 41 42 43 44 45 46 47 48 49 50

000
NZUS59 KLOT 022208
HRRLOT

CHICAGO AREA WEATHER ROUNDUP
NATIONAL WEATHER SERVICE CHICAGO/ROMEOVILLE IL
500 PM CDT MON MAY 02 2016

NOTE: "FAIR" INDICATES FEW OR NO CLOUDS BELOW 12,000 FEET WITH NO
SIGNIFICANT WEATHER AND/OR OBSTRUCTIONS TO VISIBILITY.

* THESE STATIONS ARE NOT UNDER NWS QUALITY CONTROL. THEY ALSO MAY NOT
  REPORT WEATHER SUCH AS PRECIPITATION OR FOG.

ILZ005-006-012>014-019>023-022300-
NORTHEAST ILLINOIS

CITY           SKY/WX    TMP DP  RH WIND       PRES   REMARKS
OHARE          PTSUNNY   57  33  40 N14       30.01F
MIDWAY         PTSUNNY   56  37  49 NE15G23   30.02F
AURORA         SUNNY     60  35  39 NE17      30.01F
LANSING*       CLOUDY    55  40  56 NE10      30.02S
JOLIET*        SUNNY     59  37  44 NE14      30.01S
WAUKEGAN       SUNNY     55  34  45 N12       30.02F
DUPAGE AIRPORT SUNNY     59  33  37 NE14      30.00F
WHEELING       CLOUDY    55  32  41 NE10      30.04F
KANKAKEE*      MOSUNNY   58  40  51 N9        30.00F
MORRIS*        SUNNY     59  35  40 NE5       30.00S
LEWIS AIRPORT* SUNNY     57  33  41 NE15      30.01S
$$

WIZ051-052-058>065-066-070>072-022300-
SOUTHEAST WISCONSIN

CITY           SKY/WX    TMP DP  RH WIND       PRES   REMARKS
MILWAUKEE      MOSUNNY   55  36  48 N12       30.03F
KENOSHA*       SUNNY     60  34  37 NE9       30.02F
RACINE*        SUNNY     56  34  43 NE13      30.04F
BURLINGTON     SUNNY     59  29  31 NE9G17    30.01F
WAUKESHA       MOSUNNY   57  30  35 NE17      30.03F
WEST BEND      MOSUNNY   59  32  36 E8        30.02F
$$

INZ001>003-010>013-019-020-022300-
NORTHWEST INDIANA

CITY           SKY/WX    TMP DP  RH WIND       PRES   REMARKS
GARY*          PTSUNNY   52  45  76 N10       30.03F
MICHIGAN CITY* NOT AVBL
RENSSELAER*    NOT AVBL
VALPARAISO     CLOUDY    50  40  68 N9        30.01F
$$

LMZ740>746-022300-
SOUTHERN LAKE MICHIGAN

STATION/POSITION TIME  SKY/WX   TEMP WIND        PRES    VSBY
                                AIR  DIR/SP/G
                 (UTC)          (F)  (DEG/KT/KT) (MB)    (MI)
HARRISON CRIB    2100            46  360/ 10/ 11   N/A
BURNHAM HARBOR   2200            49   10/  7/ 11   N/A
CALUMET HARBOR   2100            48  340/ 11/ 13 1016.6F
BURNS HARBOR     2126            46   50/ 10/ 13 1017.3F
MICHIGAN CITY    2100            44   10/  8/  9   N/A
$$

ABBREVIATIONS USED IN REMARKS
   TC - TEMPERATURE IN CELSIUS
  WCI - WIND CHILL INDEX
   HX - HEAT INDEX
  VSB - VISIBILITY
$$




USA.gov is the U.S. government's official web portal to all federal, state and local government web resources and services.